User: anonymous   Login
Location: Fort Wayne
(41.1310°N, 85.1290°W)
Time: 17:19:21
(UTC-05:00)
Language:

IDEFIX/ARIANE 42P - Orbit

View from above orbital plane
View from above orbital plane
View from above satellite
View from above satellite

Ground track
Ground track

The orbit data is extracted from the following two-line orbital elements,

1 27422U 02021B   18052.59344460 -.00000042 +00000-0 -59915-6 0  9996
2 27422 098.2472 044.2633 0011502 213.2975 146.7486 14.29259814822307
Epoch (UTC): 21 February 2018 14:14:33
Eccentricity: 0.0011502
inclination: 98.2472°
perigee height: 786 km
apogee height: 802 km
right ascension of ascending node: 44.2633°
argument of perigee: 213.2975°
revolutions per day: 14.29259814
mean anomaly at epoch: 146.7486°
orbit number at epoch: 82230

The dashed part of the orbit path shows where the satellite is in the earth's shadow,  

DLR